Location: Unspecified
(0.0000°N, 0.0000°E)
Time: 19:32:13
(UTC+00:00)

Vanguard 1 Rocket - Pass Details

Date: 18 April 2026
Orbit: 655 x 4212 km, 34.3° (Epoch: 17 May)

Event Time Altitude Azimuth Distance (km) Brightness Sun altitude
Rises 20:55:06 0° 266° (W) 7,131 12.7 -42.9°
Reaches altitude 10° 21:00:17 10° 275° (W) 6,529 12.3 -44.2°
Maximum altitude 21:20:19 34° 334° (NNW) 5,570 11.4 -49.0°
Drops below altitude 10° 21:41:58 10° 33° (NNE) 6,879 11.7 -54.1°
Sets 21:47:51 0° 43° (NE) 7,515 11.9 -55.5°
